When you browse on this site, cookies collect data to enhance your experience and personalize the content and advertising you see.
Visit our Privacy Policy to learn more. By continuing to use the site, you agree to this use of cookies and data.
  • In Schweiz
  • Länderverzeichnis
  • Für 7 Tage
  • Wassertemperatur
  • Wetterkarte
  • Widgets
  • user-avatar
    Anmelden

    Stündliche Wetter Halytsya

    Heute, 21 Januar, Dienstag

    Zeit Temperatur Niederschläge Wind Luftdruck Luftfeuchtigkeit
    00:00 -2°C° 0 mm 5 m/S 763 mmHg 92%
    01:00 -2°C° 0 mm 5 m/S 763 mmHg 91%
    02:00 -3°C° 0 mm 6 m/S 763 mmHg 90%
    03:00 -3°C° 0 mm 6 m/S 762 mmHg 88%
    04:00 -3°C° 0 mm 6 m/S 761 mmHg 87%
    05:00 -2°C° 0 mm 5 m/S 761 mmHg 85%
    06:00 -2°C° 0 mm 5 m/S 760 mmHg 85%
    07:00 -2°C° 0 mm 5 m/S 760 mmHg 84%
    08:00 -2°C° 0 mm 5 m/S 759 mmHg 83%
    09:00 -2°C° 0 mm 5 m/S 759 mmHg 82%
    10:00 -3°C° 0 mm 6 m/S 759 mmHg 81%
    11:00 -2°C° 0 mm 6 m/S 758 mmHg 80%
    12:00 -2°C° 0 mm 6 m/S 758 mmHg 80%
    13:00 -1°C° 0 mm 5 m/S 757 mmHg 81%
    14:00 -1°C° 0 mm 5 m/S 757 mmHg 81%
    15:00 -1°C° 0 mm 5 m/S 756 mmHg 82%
    16:00 -1°C° 0 mm 5 m/S 755 mmHg 83%
    17:00 -1°C° 0 mm 5 m/S 755 mmHg 83%
    18:00 -2°C° 0 mm 6 m/S 754 mmHg 84%
    19:00 -1°C° 0 mm 6 m/S 754 mmHg 85%
    20:00 -1°C° 0 mm 7 m/S 754 mmHg 86%
    21:00 -1°C° 0 mm 7 m/S 753 mmHg 86%
    22:00 -1°C° 0 mm 7 m/S 753 mmHg 86%
    23:00 -1°C° 0 mm 7 m/S 752 mmHg 86%

    Morgen, 22 Januar, Mittwoch

    Zeit Temperatur Niederschläge Wind Luftdruck Luftfeuchtigkeit
    00:00 -1°C° 0 mm 7 m/S 752 mmHg 87%
    01:00 -1°C° 0 mm 7 m/S 752 mmHg 87%
    02:00 -1°C° 0 mm 7 m/S 752 mmHg 88%
    03:00 -1°C° 0 mm 7 m/S 751 mmHg 88%
    04:00 -1°C° 0 mm 7 m/S 750 mmHg 88%
    05:00 -1°C° 0 mm 7 m/S 750 mmHg 89%
    06:00 -1°C° 0 mm 7 m/S 749 mmHg 89%
    07:00 -1°C° 0 mm 7 m/S 749 mmHg 89%
    08:00 -1°C° 0 mm 7 m/S 749 mmHg 89%
    09:00 -1°C° 0 mm 7 m/S 748 mmHg 88%
    10:00 0°C° 0 mm 8 m/S 747 mmHg 87%
    11:00 0°C° 0 mm 8 m/S 746 mmHg 87%
    12:00 0°C° 0.3 mm 8 m/S 746 mmHg 89%
    13:00 -1°C° 0.3 mm 8 m/S 745 mmHg 92%
    14:00 -1°C° 0.3 mm 9 m/S 744 mmHg 95%
    15:00 -1°C° 0.5 mm 8 m/S 744 mmHg 95%
    16:00 -1°C° 0.5 mm 8 m/S 744 mmHg 96%
    17:00 -1°C° 0.5 mm 8 m/S 744 mmHg 96%
    18:00 -1°C° 0.2 mm 7 m/S 744 mmHg 96%
    19:00 -2°C° 0.2 mm 6 m/S 744 mmHg 95%
    20:00 -2°C° 0.2 mm 6 m/S 744 mmHg 95%
    21:00 -2°C° 0.3 mm 6 m/S 745 mmHg 94%
    22:00 -3°C° 0.3 mm 6 m/S 745 mmHg 92%
    23:00 -3°C° 0.3 mm 7 m/S 745 mmHg 90%

    übermorgen, 23 Januar, Donnerstag

    Zeit Temperatur Niederschläge Wind Luftdruck Luftfeuchtigkeit
    00:00 -3°C° 0 mm 7 m/S 746 mmHg 87%
    01:00 -4°C° 0 mm 6 m/S 747 mmHg 85%
    02:00 -4°C° 0 mm 6 m/S 747 mmHg 82%
    03:00 -4°C° 0 mm 6 m/S 747 mmHg 83%
    04:00 -4°C° 0 mm 6 m/S 748 mmHg 85%
    05:00 -4°C° 0 mm 6 m/S 748 mmHg 87%
    06:00 -4°C° 0.1 mm 7 m/S 749 mmHg 85%
    07:00 -4°C° 0.1 mm 7 m/S 749 mmHg 83%
    08:00 -4°C° 0.1 mm 7 m/S 750 mmHg 81%
    09:00 -5°C° 0 mm 8 m/S 750 mmHg 74%
    10:00 -5°C° 0 mm 8 m/S 751 mmHg 68%
    11:00 -4°C° 0 mm 8 m/S 752 mmHg 62%
    12:00 -4°C° 0 mm 8 m/S 752 mmHg 61%
    13:00 -4°C° 0 mm 8 m/S 752 mmHg 61%
    14:00 -4°C° 0 mm 8 m/S 752 mmHg 60%
    15:00 -3°C° 0 mm 7 m/S 753 mmHg 64%
    16:00 -4°C° 0 mm 6 m/S 753 mmHg 67%
    17:00 -3°C° 0 mm 4 m/S 754 mmHg 71%
    18:00 -4°C° 0 mm 5 m/S 754 mmHg 72%
    19:00 -4°C° 0 mm 5 m/S 755 mmHg 73%
    20:00 -4°C° 0 mm 5 m/S 755 mmHg 74%
    21:00 -4°C° 0 mm 5 m/S 756 mmHg 75%
    22:00 -4°C° 0 mm 5 m/S 756 mmHg 76%
    23:00 -4°C° 0 mm 4 m/S 756 mmHg 76%

    24 Januar, Freitag

    Zeit Temperatur Niederschläge Wind Luftdruck Luftfeuchtigkeit
    00:00 -4°C° 0 mm 4 m/S 756 mmHg 77%
    01:00 -4°C° 0 mm 4 m/S 757 mmHg 78%
    02:00 -4°C° 0 mm 4 m/S 757 mmHg 79%
    03:00 -4°C° 0 mm 4 m/S 757 mmHg 80%
    04:00 -4°C° 0 mm 4 m/S 756 mmHg 81%
    05:00 -4°C° 0 mm 4 m/S 756 mmHg 82%
    06:00 -4°C° 0 mm 4 m/S 756 mmHg 82%
    07:00 -3°C° 0 mm 4 m/S 756 mmHg 81%
    08:00 -3°C° 0 mm 4 m/S 756 mmHg 80%
    09:00 -4°C° 0 mm 5 m/S 756 mmHg 77%
    10:00 -2°C° 0 mm 5 m/S 756 mmHg 75%
    11:00 -2°C° 0 mm 6 m/S 755 mmHg 72%
    12:00 -2°C° 0 mm 6 m/S 755 mmHg 68%
    13:00 -1°C° 0 mm 6 m/S 755 mmHg 64%
    14:00 -1°C° 0 mm 6 m/S 754 mmHg 60%
    15:00 0°C° 0 mm 5 m/S 754 mmHg 62%
    16:00 0°C° 0 mm 5 m/S 754 mmHg 63%
    17:00 -1°C° 0 mm 4 m/S 754 mmHg 65%
    18:00 -1°C° 0 mm 4 m/S 754 mmHg 65%
    19:00 -1°C° 0 mm 4 m/S 754 mmHg 66%
    20:00 -1°C° 0 mm 4 m/S 755 mmHg 67%
    21:00 -1°C° 0 mm 4 m/S 754 mmHg 68%
    22:00 -2°C° 0 mm 4 m/S 754 mmHg 69%
    23:00 -2°C° 0 mm 4 m/S 754 mmHg 70%

    25 Januar, Samstag

    Zeit Temperatur Niederschläge Wind Luftdruck Luftfeuchtigkeit
    00:00 -2°C° 0 mm 4 m/S 754 mmHg 72%
    01:00 -3°C° 0 mm 4 m/S 754 mmHg 73%
    02:00 -2°C° 0 mm 3 m/S 754 mmHg 75%
    03:00 -2°C° 0 mm 3 m/S 753 mmHg 74%
    04:00 -2°C° 0 mm 3 m/S 753 mmHg 73%
    05:00 -2°C° 0 mm 3 m/S 753 mmHg 71%
    06:00 -2°C° 0 mm 3 m/S 753 mmHg 71%
    07:00 -2°C° 0 mm 3 m/S 753 mmHg 70%
    08:00 -2°C° 0 mm 3 m/S 753 mmHg 69%
    09:00 -2°C° 0 mm 3 m/S 753 mmHg 65%
    10:00 -1°C° 0 mm 3 m/S 753 mmHg 61%
    11:00 0°C° 0 mm 3 m/S 753 mmHg 57%
    12:00 +1°C° 0 mm 3 m/S 752 mmHg 57%
    13:00 +1°C° 0 mm 3 m/S 752 mmHg 58%
    14:00 0°C° 0 mm 4 m/S 752 mmHg 58%
    15:00 0°C° 0 mm 3 m/S 751 mmHg 63%
    16:00 -1°C° 0 mm 3 m/S 751 mmHg 69%
    17:00 -2°C° 0 mm 3 m/S 751 mmHg 74%
    18:00 -2°C° 0 mm 3 m/S 751 mmHg 73%
    19:00 -2°C° 0 mm 2 m/S 751 mmHg 72%
    20:00 -2°C° 0 mm 2 m/S 751 mmHg 71%
    21:00 -2°C° 0 mm 3 m/S 751 mmHg 70%
    22:00 -1°C° 0 mm 3 m/S 751 mmHg 69%
    23:00 -1°C° 0 mm 3 m/S 751 mmHg 68%

    26 Januar, Sonntag

    Zeit Temperatur Niederschläge Wind Luftdruck Luftfeuchtigkeit
    00:00 -1°C° 0 mm 3 m/S 751 mmHg 71%
    01:00 -2°C° 0 mm 3 m/S 751 mmHg 73%
    02:00 -2°C° 0 mm 3 m/S 751 mmHg 76%
    03:00 -2°C° 0 mm 3 m/S 751 mmHg 78%
    04:00 -2°C° 0 mm 3 m/S 751 mmHg 79%
    05:00 -2°C° 0 mm 3 m/S 751 mmHg 81%
    06:00 -2°C° 0 mm 3 m/S 751 mmHg 84%
    07:00 -2°C° 0 mm 3 m/S 751 mmHg 86%
    08:00 -2°C° 0 mm 3 m/S 751 mmHg 89%
    09:00 -1°C° 0 mm 3 m/S 751 mmHg 87%
    10:00 -2°C° 0 mm 4 m/S 752 mmHg 86%
    11:00 -1°C° 0 mm 4 m/S 752 mmHg 85%
    12:00 -1°C° 0 mm 4 m/S 752 mmHg 84%
    13:00 -1°C° 0 mm 4 m/S 752 mmHg 83%
    14:00 -1°C° 0 mm 4 m/S 752 mmHg 82%
    15:00 0°C° 0 mm 3 m/S 752 mmHg 83%
    16:00 0°C° 0 mm 3 m/S 752 mmHg 84%
    17:00 -1°C° 0 mm 3 m/S 752 mmHg 85%
    18:00 -1°C° 0 mm 2 m/S 752 mmHg 86%
    19:00 -1°C° 0 mm 2 m/S 753 mmHg 86%
    20:00 -1°C° 0 mm 2 m/S 753 mmHg 86%
    21:00 -1°C° 0 mm 2 m/S 753 mmHg 85%
    22:00 -1°C° 0 mm 2 m/S 753 mmHg 85%
    23:00 -1°C° 0 mm 2 m/S 753 mmHg 84%
    Mehr zeigen